Regional Weather Roundup
Issued by NWS Green Bay, WI

Home | Current Version | Previous Version | Text Only | Print | Product List | Glossary On
Versions: 1 2 3 4 5 6 7 8 9 10 11 12 13 14 15 16 17 18 19 20 21 22 23 24 25 26 27 28 29 30 31 32 33 34 35 36 37 38 39 40 41 42 43 44 45 46 47 48 49 50
000
ASUS43 KGRB 032010
RWRGRB

NORTH-CENTRAL AND NORTHEAST WISCONSIN REGIONAL WEATHER ROUNDUP
NATIONAL WEATHER SERVICE GREEN BAY WI
200 PM CST TUE MAR 03 2015

WIZ005-009-010>012-018-019-032100-
NORTH CENTRAL WISCONSIN

CITY           SKY/WX    TMP DP  RH WIND       PRES   REMARKS
IRONWOOD       CLOUDY    25  19  80 W15       29.48F
MANITOWISH WTR LGT SNOW  24  18  80 W13G18    29.49S
ARBOR VITAE    PTSUNNY   25  19  76 W8        29.49F
EAGLE RIVER    FLURRIES  24  16  70 W13       29.47F
LAND O LAKES   PTSUNNY   26  18  71 W8G17     29.47F
RHINELANDER    CLOUDY    25  17  72 W14       29.49F
PHILLIPS       CLOUDY    25  19  77 W8        29.52F
ANTIGO         CLOUDY    24  18  77 W14G20    29.51F
TOMAHAWK       CLOUDY    26  17  67 W12G17    29.51F
MERRILL        CLOUDY    27  19  70 W8        29.52F
$$

WIZ013-073-032100-
NORTHEAST WISCONSIN

CITY           SKY/WX    TMP DP  RH WIND       PRES   REMARKS
IRON MOUNTAIN  CLOUDY    25  17  72 W8        29.48F HAZE
MARINETTE      CLOUDY    28  25  86 W8        29.52F
OCONTO         CLOUDY    28  26  90 W9        29.53F
$$

WIZ017-030-035>037-045-032100-
CENTRAL WISCONSIN

CITY           SKY/WX    TMP DP  RH WIND       PRES   REMARKS
MEDFORD        CLOUDY    26  18  73 W13G21    29.54S
WAUSAU         CLOUDY    25  18  74 W9G20     29.53F
MOSINEE        CLOUDY    25  21  86 W12G22    29.55F
MARSHFIELD     CLOUDY    27  20  75 W13       29.56S
WISC RAPIDS    CLOUDY    26  20  77 W8        29.59F
STEVENS POINT  CLOUDY    24  20  85 W10G16    29.57S
WAUPACA        CLOUDY    29  24  80 W15       29.58S
SHAWANO        MIX PCPN  29  24  80 W9G20     29.56S
CLINTONVILLE   CLOUDY    28  23  80 W8        29.56F
$$

WIZ038-039-048-051-032100-
FOX VALLEY

CITY           SKY/WX    TMP DP  RH WIND       PRES   REMARKS
NWS GREEN BAY  CLOUDY    28  24  85 W15       29.55F
APPLETON       CLOUDY    27  25  93 W14       29.55F
OSHKOSH        CLOUDY    28  23  81 W8G18     29.56F
FOND DU LAC    CLOUDY    29  25  85 W10       29.56F
$$

WIZ022-050-052-032100-
EAST CENTRAL WISCONSIN

CITY           SKY/WX    TMP DP  RH WIND       PRES   REMARKS
STURGEON BAY   CLOUDY    28  25  86 W13       29.53F
MANITOWOC      CLOUDY    30  27  88 W18       29.54F
SHEBOYGAN      CLOUDY    30  25  81 W18G25    29.55F
$$

LMZ563-521-522-541>543-032100-
LAKESHORE

STATION/POSITION TIME  TEMP    WIND        PRES    VSBY  WAVE
                       AIR SEA DIR/SP/G                  HT/PER
                 (UTC) (F)     (DEG/KT/KT) (MB)    (MI)  (FT/S)
SHEBOYGAN LKSHOR 2000   31     250/  4/  6 1001.7F
KEWAUNEE LKSHORE 2000   29     250/  9/ 12  999.6F
NORTHPORT PIER   1900   28     160/  6/ 20 1001.0F
SISTER BAY LKSHO 2000   29     220/  8/ 10   N/A
STURGEON BAY CG  1900   28     190/  9     1002.3      6   2
CHAMBERS ISLAND  2000   29     200/  6/ 11 1000.3F
MENOMINEE LKSHOR 2000   28     350/ 10     1000.7F
$$



USA.gov is the U.S. government's official web portal to all federal, state and local government web resources and services.